Location: Rowland
(34.5359°N, 79.2929°W)
Time: 18:12:38
(UTC+00:00)

Transit 2A Rocket - Pass Details

Date: 12 October 2022
Orbit: 589 x 911 km, 66.7° (Epoch: 02 December)

Event Time Altitude Azimuth Distance (km) Brightness Sun altitude
Rises 09:02:58 0° 231° (SW) 2,834 - -29.0°
Reaches altitude 10° 09:05:28 10° 243° (WSW) 1,918 - -28.5°
Maximum altitude 09:09:09 28° 303° (WNW) 1,125 - -27.7°
Exits shadow 09:12:27 12° 360° (N) 1,794 7.0 -27.0°
Drops below altitude 10° 09:12:52 10° 3° (N) 1,931 7.2 -27.0°
Sets 09:15:24 0° 15° (NNE) 2,858 8.3 -26.4°
